FW4838 Weather Reports


Display with metric or nautical units.
time (UTC)temp
F
wind
direction
speed
MPH
gust
MPH
rain 1hr
in
rain 24hr
in
rain mn
in
humidity
%
barometer
mb
20260906220042 98 62 6.0 13.0 0.00 0.00 0.00 36 1012.8
20260906214540 97 65 3.0 11.0 0.00 0.00 0.00 38 1013.2
20260906213044 100 62 5.0 13.0 0.00 0.00 0.00 36 1013.2
20260906211543 99 127 3.0 10.0 0.00 0.00 0.00 36 1013.4
20260906210048 99 133 3.0 13.0 0.00 0.00 0.00 36 1013.6
20260906204543 99 112 5.0 13.0 0.00 0.00 0.00 35 1013.8
20260906203042 98 169 3.0 9.0 0.00 0.00 0.00 38 1013.9
20260906201550 98 43 7.0 12.0 0.00 0.00 0.00 38 1014.1
20260906200043 96 34 4.0 10.0 0.00 0.00 0.00 40 1014.1
20260906194542 96 42 7.0 13.0 0.00 0.00 0.00 40 1014.4
20260906193042 96 105 3.0 9.0 0.00 0.00 0.00 39 1014.5
20260906191543 96 117 4.0 8.0 0.00 0.00 0.00 39 1014.9
20260906190056 95 56 2.0 11.0 0.00 0.00 0.00 42 1014.9
20260906184551 98 137 5.0 14.0 0.00 0.00 0.00 39 1015.0
20260906183050 96 53 3.0 11.0 0.00 0.00 0.00 40 1015.2
20260906181542 97 62 4.0 11.0 0.00 0.00 0.00 39 1015.6
20260906180045 94 67 4.0 13.0 0.00 0.00 0.00 44 1015.8
20260906174546 94 136 4.0 9.0 0.00 0.00 0.00 43 1016.0
20260906173044 92 40 0.0 10.0 0.00 0.00 0.00 46 1016.3
20260906171541 94 46 6.0 12.0 0.00 0.00 0.00 44 1016.4
20260906170043 94 71 3.0 11.0 0.00 0.00 0.00 45 1016.6
20260906164542 93 15 4.0 11.0 0.00 0.00 0.00 46 1016.7
20260906163045 92 141 4.0 14.0 0.00 0.00 0.00 46 1016.7
20260906161542 92 49 4.0 12.0 0.00 0.00 0.00 47 1016.8
20260906154555 91 117 1.0 7.0 0.00 0.00 0.00 50 1016.7
20260906153044 90 239 3.0 8.0 0.00 0.00 0.00 52 1016.7
20260906151542 89 292 3.0 7.0 0.00 0.00 0.00 54 1016.8
20260906150048 88 246 3.0 7.0 0.00 0.00 0.00 56 1016.7
20260906144543 88 313 3.0 7.0 0.00 0.00 0.00 57 1016.7
20260906143044 85 224 2.0 4.0 0.00 0.00 0.00 61 1016.5
20260906141544 83 241 1.0 3.0 0.00 0.00 0.00 65 1016.6
20260906140047 82 250 1.0 4.0 0.00 0.00 0.00 67 1016.5
20260906134555 80 238 1.0 4.0 0.00 0.00 0.00 69 1016.5
20260906133107 79 204 1.0 4.0 0.00 0.00 0.00 72 1016.4
20260906131541 77 187 1.0 3.0 0.00 0.00 0.00 75 1016.3
20260906130042 76 185 1.0 3.0 0.00 0.00 0.00 77 1016.3
20260906124543 75 178 0.0 2.0 0.00 0.00 0.00 78 1016.0
20260906123044 75 0 0.0 4.0 0.00 0.00 0.00 78 1015.9
20260906121543 74 188 0.0 1.0 0.00 0.00 0.00 79 1015.6
20260906120042 75 186 0.0 2.0 0.00 0.00 0.00 79 1015.5
20260906114548 75 0 0.0 2.0 0.00 0.00 0.00 78 1015.3
20260906113043 75 0 0.0 2.0 0.00 0.00 0.00 77 1015.2
20260906111543 75 184 1.0 4.0 0.00 0.00 0.00 78 1015.2
20260906110043 75 0 0.0 1.0 0.00 0.00 0.00 78 1015.0
20260906104600 75 148 0.0 2.0 0.00 0.00 0.00 77 1015.1
20260906103042 76 0 0.0 2.0 0.00 0.00 0.00 77 1015.0
20260906101545 75 0 0.0 0.0 0.00 0.00 0.00 75 1014.9
20260906100043 76 0 0.0 3.0 0.00 0.00 0.00 74 1015.0
20260906094543 77 195 2.0 5.0 0.00 0.00 0.00 73 1015.0
20260906093058 77 161 1.0 4.0 0.00 0.00 0.00 73 1014.7
20260906091541 77 186 1.0 6.0 0.00 0.00 0.00 73 1014.7
20260906090043 78 165 1.0 4.0 0.00 0.00 0.00 72 1014.7
20260906084545 78 167 1.0 5.0 0.00 0.00 0.00 71 1014.6
20260906083044 78 205 2.0 7.0 0.00 0.00 0.00 71 1014.6
20260906081544 79 192 3.0 6.0 0.00 0.00 0.00 70 1014.4
20260906080043 79 161 1.0 7.0 0.00 0.00 0.00 70 1014.6
20260906074542 79 172 2.0 6.0 0.00 0.00 0.00 70 1014.7
20260906073043 79 159 3.0 8.0 0.00 0.00 0.00 68 1014.8
20260906071545 80 201 3.0 9.0 0.00 0.00 0.00 68 1014.8
20260906070044 80 173 2.0 7.0 0.00 0.00 0.00 67 1014.9
20260906064542 81 157 3.0 9.0 0.00 0.00 0.00 67 1015.1
20260906063045 81 134 2.0 8.0 0.00 0.00 0.00 66 1015.2
20260906061546 82 191 4.0 8.0 0.00 0.00 0.00 64 1015.4
20260906060044 82 177 3.0 9.0 0.00 0.00 0.00 63 1015.6
20260906054554 82 144 4.0 8.0 0.00 0.00 0.00 63 1015.8
20260906053044 83 151 4.0 9.0 0.00 0.00 0.00 61 1015.5
20260906051542 83 192 5.0 12.0 0.00 0.00 0.00 60 1015.4
20260906050059 83 153 3.0 9.0 0.00 0.00 0.00 59 1015.4
20260906044546 84 159 4.0 10.0 0.00 0.00 0.00 56 1015.3
20260906043042 84 155 4.0 10.0 0.00 0.00 0.00 55 1015.3
20260906041543 85 168 3.0 9.0 0.00 0.00 0.00 53 1015.3
20260906040044 84 169 3.0 8.0 0.00 0.00 0.00 52 1015.0
20260906034546 84 127 1.0 4.0 0.00 0.00 0.00 52 1015.2
20260906033053 84 128 1.0 4.0 0.00 0.00 0.00 51 1015.0
20260906031550 84 100 1.0 4.0 0.00 0.00 0.00 51 1015.0
20260906030042 86 101 1.0 4.0 0.00 0.00 0.00 49 1014.7
20260906024544 86 136 1.0 4.0 0.00 0.00 0.00 49 1014.4
20260906023044 87 121 1.0 5.0 0.00 0.00 0.00 48 1014.2
20260906021550 87 165 1.0 4.0 0.00 0.00 0.00 47 1013.9
20260906020053 88 132 2.0 5.0 0.00 0.00 0.00 46 1013.9
20260906014554 89 157 1.0 4.0 0.00 0.00 0.00 45 1013.6
20260906013046 90 124 2.0 6.0 0.00 0.00 0.00 43 1013.5
20260906011542 90 130 2.0 5.0 0.00 0.00 0.00 42 1013.5
20260906010048 91 138 2.0 7.0 0.00 0.00 0.00 41 1013.2
20260906004543 92 107 3.0 9.0 0.00 0.00 0.00 40 1013.2
20260906003042 93 157 3.0 9.0 0.00 0.00 0.00 40 1013.2
20260906001542 94 171 3.0 14.0 0.00 0.00 0.00 39 1013.1
20260906000045 95 113 4.0 10.0 0.00 0.00 0.00 38 1012.9
20260905234549 95 109 4.0 10.0 0.00 0.00 0.00 37 1013.1
20260905233044 96 78 3.0 10.0 0.00 0.00 0.00 36 1012.8
20260905231546 96 126 3.0 10.0 0.00 0.00 0.00 36 1012.7
20260905230101 96 216 6.0 11.0 0.00 0.00 0.00 37 1012.6
20260905224544 96 163 3.0 9.0 0.00 0.00 0.00 37 1012.7
20260905223043 97 127 3.0 11.0 0.00 0.00 0.00 36 1012.6
20260905221546 98 145 3.0 8.0 0.00 0.00 0.00 35 1012.7